Regional Weather Roundup
Issued by NWS Newport/Morehead, NC

Current Version | Previous Version | Graphics & Text | Print | Product List | Glossary Off
Versions: 1 2 3 4 5 6 7 8 9 10 11 12 13 14 15 16 17 18 19 20 21 22 23 24 25 26 27 28 29 30 31 32 33 34 35 36 37 38 39 40 41 42 43 44 45 46 47 48 49 50

000
ASUS42 KMHX 280325
RWRMHX
WEATHER ROUNDUP FOR EASTERN NORTH CAROLINA
NATIONAL WEATHER SERVICE NEWPORT/MOREHEAD CITY NC
1100 PM EDT WED MAY 27 2015

NOTE: "FAIR" INDICATES FEW OR NO CLOUDS BELOW 12,000 FEET
WITH NO SIGNIFICANT WEATHER AND/OR OBSTRUCTIONS TO VISIBILITY

NCZ015>017-031-032-045>047-102-103-280400-
NORTH COAST

CITY           SKY/WX    TMP DP  RH WIND       PRES   REMARKS
EDENTON        MOCLDY    73  67  81 S8        30.24F
ELIZABETH CITY CLEAR     72  65  78 S9        30.25R
KITTY HAWK     CLEAR     72  63  73 S7        30.25S
MANTEO         CLEAR     72  64  75 SW13      30.26S

$$

NCZ045>047-081-094-103-104-280400-
CENTRAL COAST

CITY           SKY/WX    TMP DP  RH WIND       PRES   REMARKS
FRISCO         CLEAR     72  61  68 SW12      30.27S
SWANQUARTER      N/A     73 N/A N/A S14       30.24S

$$

NCZ095-097-098-100-101-280400-
SOUTHERN COAST

CITY           SKY/WX    TMP DP  RH WIND       PRES   REMARKS
BEAUFORT       PTCLDY    72  63  73 S7        30.25F
CEDAR ISLAND     N/A     70 N/A N/A SE1       30.30S
JACKSONVILLE   CLEAR     71  65  81 S3        30.24S
PINEY ISLAND   CLEAR    N/A N/A N/A S3        30.26S
WILMINGTON     CLEAR     73  65  75 SE6       30.24S


$$

NCZ011>013-027>030-043-044-078>080-089-090>093-098-280400-
COASTAL PLAIN

CITY           SKY/WX    TMP DP  RH WIND       PRES   REMARKS
AHOSKIE        CLOUDY    73  67  80 CALM      30.23F
CLINTON        CLOUDY    72  69  92 CALM      30.24S
ELIZABETHTOWN  MOCLDY    72  68  88 SE3       30.23S
GOLDSBORO      MOCLDY    73  68  83 S2        30.21S
GREENVILLE     MOCLDY    73  68  83 S8        30.25S
HAVELOCK       CLEAR     68  63  84 CALM      30.27R
KENANSVILLE    MOCLDY    71  66  84 CALM      30.25S
KINSTON        MOCLDY    73  67  81 S6        30.25S
NEW BERN       PTCLDY    71  65  81 S3        30.26F
RICHLANDS      CLEAR     70  63  78 CALM      30.25S
ROCKY MOUNT    CLOUDY    72  70  93 CALM      30.23S
WASHINGTON     MOCLDY    73  66  79 S6        30.25S
WHITEVILLE     PTCLDY    69  66  90 CALM      30.23S

$$

AMZ130-135-150-152-154-156-158-170-250-252-270-ANZ085-086-088-633-658-670-280400-
MARINE OBSERVATIONS

STATION/POSITION TIME  TEMP    WIND        PRES    WAVE   SWELL
                       AIR SEA DIR/SP/G            HT/PER HT/PER
                 (UTC) (F)     (DEG/KT/KT) (MB)    (FT/S) (FT/S)
CHESAPEAKE LIGHT 0300   67     200/ 22/ 22 1024.0
64 E VA BEACH    0250   66 64  190/  8/  8 1024.4    2/ 6   2/ 6
DUCK             0300   72 56  200/ 12/ 17 1023.5
2 E DUCK         0211      60                N/A     2/ 4
OREGON INLET     0300   73 77  190/ 13/ 16 1024.8
13E OREGON INLT  0300      69                N/A     3/ 4
HATTERAS CG      0300   73 76  200/  4/  7 1024.6
DIAMOND BUOY     0250   74 77  180/ 12/ 14 1025.0    3/ 7   2/ 7
CAPE LOOKOUT     0300   74     170/  8/  8 1024.4
BEAUFORT LAB     0300   74 76  190/  9/ 10 1023.6
27 SE WRIGHTSVLE 0300      76  220/  8/ 10   N/A
5 SE WRIGHTSVLE  0208   75 77  180/ 10/ 14 1024.1
225 S CAPE HAT   0250   73 74  100/ 10/ 14 1024.4    5/ 8   5/ 8
41 SE CHARLESTON 0250   77 78  120/  8/ 10 1022.9    3/ 8   2/ 8

$$


USA.gov is the U.S. government's official web portal to all federal, state and local government web resources and services.